sat.trackr.live / text

‹ back to catalog

STARLINK-30855

NORAD 58222 · 2023-170S

PAYLOAD ACTIVE UNKNOWN

§ Identity

Operator
Country
US
Launch date
2023-11-03
Launch site
AFETR
Launch vehicle
Mass (kg)
RCS (m²)

Purposes: comms

External: N2YO · Heavens-Above · Gunter

§ Orbital elements

Epoch: 2026-09-20T03:11:42.702432Z

Period
94.27 min
Inclination
43.0001°
Eccentricity
0.0001126
Mean motion
15.27579315 rev/d
Perigee alt
482.3 km
Apogee alt
483.8 km
Semi-major
6,861.2 km
B*
2.9708e-6
RAAN
176.3888°
Arg perigee
271.7900°
Mean anomaly
88.2822°
Rev number
16,003

§ Raw data

STARLINK-308551 58222U 23170S   26263.13313313 -.00000180  00000+0  29708-5 0  99992 58222  43.0001 176.3888 0001126 271.7900  88.2822 15.27579315160031

JSON: /api/v1/satellites/58222 · /tle

For live sub-satellite position, see the globe view (requires WebGL).

§ Visibility from observer

Set your observer location to see the next 7 days of passes ≥ 10°. The values pass through the URL so the page stays shareable.

No JS? Fill the form by hand. The geolocation button needs JavaScript.